| time (UTC) | temp F | wind direction | speed knots | gust knots | rain 1hr in | rain 24hr in | rain mn in | humidity % | barometer mb |
| 20260505173038 | 53 | 268 | 4.3 | 10.4 | 0.00 | 0.12 | 0.12 | 75 | 1017.0 |
| 20260505171509 | 52 | 332 | 4.3 | 10.4 | 0.00 | 0.12 | 0.12 | 74 | 1017.0 |
| 20260505170025 | 53 | 230 | 2.6 | 7.8 | 0.00 | 0.12 | 0.12 | 76 | 1017.0 |
| 20260505164503 | 51 | 283 | 2.6 | 7.8 | 0.00 | 0.12 | 0.12 | 79 | 1016.9 |
| 20260505163014 | 50 | 287 | 3.5 | 6.1 | 0.00 | 0.12 | 0.12 | 79 | 1016.8 |
| 20260505161522 | 50 | 259 | 0.9 | 4.3 | 0.02 | 0.12 | 0.12 | 83 | 1016.8 |
| 20260505153022 | 48 | 306 | 0.9 | 3.5 | 0.04 | 0.12 | 0.12 | 88 | 1016.5 |
| 20260505151507 | 47 | 30 | 0.9 | 1.7 | 0.02 | 0.10 | 0.10 | 86 | 1016.5 |
| 20260505124528 | 44 | 22 | 1.7 | 7.0 | 0.08 | 0.08 | 0.08 | 87 | 1015.9 |
| 20260505123017 | 44 | 258 | 0.0 | 6.1 | 0.07 | 0.07 | 0.07 | 84 | 1017.3 |
| 20260505121522 | 45 | 335 | 1.7 | 7.0 | 0.06 | 0.06 | 0.06 | 84 | 1017.5 |
| 20260505120026 | 45 | 269 | 4.3 | 10.4 | 0.05 | 0.05 | 0.05 | 81 | 1017.1 |
| 20260505114530 | 48 | 272 | 5.2 | 17.4 | 0.00 | 0.00 | 0.00 | 75 | 1017.2 |
| 20260505113024 | 50 | 291 | 4.3 | 15.6 | 0.00 | 0.00 | 0.00 | 68 | 1017.2 |
| 20260505111533 | 50 | 276 | 3.5 | 10.4 | 0.00 | 0.00 | 0.00 | 73 | 1016.9 |
| 20260505101520 | 50 | 275 | 0.9 | 3.5 | 0.00 | 0.00 | 0.00 | 73 | 1016.8 |
| 20260505100039 | 50 | 283 | 1.7 | 6.1 | 0.00 | 0.00 | 0.00 | 73 | 1016.9 |
| 20260505094517 | 50 | 276 | 1.7 | 7.0 | 0.00 | 0.00 | 0.00 | 73 | 1017.0 |
| 20260505093025 | 50 | 298 | 1.7 | 4.3 | 0.00 | 0.00 | 0.00 | 73 | 1016.6 |
| 20260505091538 | 49 | 357 | 0.9 | 3.5 | 0.00 | 0.00 | 0.00 | 74 | 1017.1 |
| 20260505090031 | 48 | 33 | 0.9 | 1.7 | 0.00 | 0.00 | 0.00 | 77 | 1016.9 |
| 20260505084533 | 47 | 21 | 0.9 | 2.6 | 0.00 | 0.00 | 0.00 | 80 | 1016.9 |
| 20260505083039 | 45 | 23 | 0.0 | 0.9 | 0.00 | 0.00 | 0.00 | 82 | 1017.2 |
| 20260505081529 | 46 | 234 | 0.0 | 0.0 | 0.00 | 0.00 | 0.00 | 78 | 1017.6 |
| 20260505080007 | 47 | 234 | 0.0 | 0.0 | 0.00 | 0.00 | 0.00 | 75 | 1017.7 |
| 20260505074514 | 49 | 235 | 0.0 | 1.7 | 0.00 | 0.00 | 0.00 | 73 | 1018.0 |
| 20260505071522 | 50 | 335 | 0.0 | 3.5 | 0.00 | 0.00 | 0.00 | 70 | 1017.8 |
| 20260505070026 | 49 | 115 | 0.0 | 0.9 | 0.00 | 0.00 | 0.00 | 71 | 1017.7 |
| 20260505064504 | 51 | 228 | 0.0 | 0.9 | 0.00 | 0.00 | 0.00 | 68 | 1017.9 |
| 20260505063015 | 51 | 333 | 1.7 | 5.2 | 0.00 | 0.00 | 0.00 | 67 | 1017.7 |
| 20260505061530 | 51 | 320 | 1.7 | 8.7 | 0.00 | 0.00 | 0.00 | 66 | 1017.3 |
| 20260505060004 | 51 | 328 | 1.7 | 4.3 | 0.00 | 0.00 | 0.00 | 65 | 1017.1 |
| 20260505054522 | 51 | 332 | 0.9 | 5.2 | 0.00 | 0.00 | 0.00 | 64 | 1017.5 |
| 20260505053024 | 52 | 23 | 1.7 | 7.0 | 0.00 | 0.00 | 0.00 | 64 | 1018.1 |
| 20260505051510 | 52 | 358 | 1.7 | 3.5 | 0.00 | 0.00 | 0.00 | 63 | 1018.4 |
| 20260505041523 | 53 | 290 | 4.3 | 11.3 | 0.00 | 0.00 | 0.00 | 61 | 1018.2 |
| 20260505040005 | 53 | 304 | 2.6 | 10.4 | 0.00 | 0.00 | 0.00 | 59 | 1018.5 |
| 20260505034518 | 54 | 308 | 2.6 | 11.3 | 0.00 | 0.00 | 0.00 | 57 | 1018.6 |
| 20260505033033 | 54 | 302 | 5.2 | 11.3 | 0.00 | 0.00 | 0.00 | 55 | 1018.6 |
| 20260505031510 | 55 | 342 | 7.0 | 11.3 | 0.00 | 0.00 | 0.00 | 53 | 1018.7 |
| 20260505030022 | 56 | 316 | 6.1 | 18.2 | 0.00 | 0.00 | 0.00 | 47 | 1018.1 |
| 20260505024548 | 57 | 338 | 7.0 | 12.2 | 0.00 | 0.00 | 0.00 | 45 | 1017.9 |
| 20260505023015 | 58 | 250 | 6.1 | 18.2 | 0.00 | 0.00 | 0.00 | 42 | 1017.9 |
| 20260505021541 | 61 | 290 | 7.0 | 13.0 | 0.00 | 0.00 | 0.00 | 34 | 1017.7 |
| 20260505020027 | 62 | 263 | 4.3 | 13.0 | 0.00 | 0.00 | 0.00 | 30 | 1017.3 |
| 20260505014522 | 62 | 266 | 4.3 | 14.8 | 0.00 | 0.00 | 0.00 | 29 | 1017.1 |
| 20260505013025 | 63 | 267 | 4.3 | 10.4 | 0.00 | 0.00 | 0.00 | 28 | 1017.0 |
| 20260505011511 | 64 | 263 | 4.3 | 10.4 | 0.00 | 0.00 | 0.00 | 26 | 1016.7 |
| 20260505010021 | 65 | 288 | 2.6 | 13.0 | 0.00 | 0.00 | 0.00 | 25 | 1016.5 |
| 20260505004536 | 66 | 315 | 5.2 | 13.0 | 0.00 | 0.00 | 0.00 | 24 | 1016.5 |
| 20260505003013 | 67 | 286 | 5.2 | 13.9 | 0.00 | 0.00 | 0.00 | 22 | 1016.2 |
| 20260505001524 | 68 | 254 | 6.1 | 11.3 | 0.00 | 0.00 | 0.00 | 20 | 1016.1 |
| 20260505000025 | 68 | 253 | 8.7 | 13.9 | 0.00 | 0.00 | 0.00 | 20 | 1016.1 |
| 20260504234517 | 68 | 238 | 7.0 | 13.9 | 0.00 | 0.00 | 0.00 | 19 | 1016.5 |
| 20260504233027 | 68 | 279 | 6.1 | 16.5 | 0.00 | 0.00 | 0.00 | 19 | 1016.5 |
| 20260504224525 | 71 | 259 | 7.8 | 14.8 | 0.00 | 0.00 | 0.00 | 19 | 1016.7 |
| 20260504223011 | 71 | 285 | 5.2 | 18.2 | 0.00 | 0.00 | 0.00 | 20 | 1016.7 |
| 20260504221532 | 70 | 257 | 4.3 | 16.5 | 0.00 | 0.00 | 0.00 | 20 | 1016.8 |
| 20260504220026 | 70 | 312 | 5.2 | 14.8 | 0.00 | 0.00 | 0.00 | 19 | 1016.8 |
| 20260504214515 | 70 | 250 | 5.2 | 13.9 | 0.00 | 0.00 | 0.00 | 21 | 1017.1 |
| 20260504213024 | 70 | 252 | 5.2 | 15.6 | 0.00 | 0.00 | 0.00 | 21 | 1017.2 |
| 20260504211529 | 69 | 255 | 4.3 | 13.0 | 0.00 | 0.00 | 0.00 | 22 | 1017.4 |
| 20260504210007 | 69 | 229 | 5.2 | 16.5 | 0.00 | 0.00 | 0.00 | 21 | 1017.6 |
| 20260504204514 | 70 | 283 | 7.8 | 14.8 | 0.00 | 0.00 | 0.00 | 20 | 1017.9 |
| 20260504203007 | 69 | 259 | 9.6 | 14.8 | 0.00 | 0.00 | 0.00 | 20 | 1018.1 |
| 20260504201508 | 69 | 281 | 7.0 | 13.9 | 0.00 | 0.00 | 0.00 | 20 | 1018.3 |
| 20260504200008 | 68 | 236 | 7.8 | 16.5 | 0.00 | 0.00 | 0.00 | 21 | 1018.3 |
| 20260504194508 | 69 | 233 | 7.8 | 14.8 | 0.00 | 0.00 | 0.00 | 20 | 1018.3 |
| 20260504193010 | 69 | 211 | 5.2 | 11.3 | 0.00 | 0.00 | 0.00 | 22 | 1018.3 |
| 20260504191512 | 69 | 270 | 5.2 | 11.3 | 0.00 | 0.00 | 0.00 | 21 | 1018.4 |
| 20260504190008 | 69 | 322 | 2.6 | 15.6 | 0.00 | 0.00 | 0.00 | 21 | 1018.6 |
| 20260504184508 | 69 | 288 | 5.2 | 12.2 | 0.00 | 0.00 | 0.00 | 22 | 1018.9 |
| 20260504183009 | 67 | 282 | 10.4 | 17.4 | 0.00 | 0.00 | 0.00 | 22 | 1018.9 |
| 20260504181508 | 67 | 282 | 5.2 | 11.3 | 0.00 | 0.00 | 0.00 | 25 | 1018.8 |
| 20260504180012 | 66 | 248 | 4.3 | 9.6 | 0.00 | 0.00 | 0.00 | 27 | 1019.1 |
| 20260504174510 | 66 | 245 | 6.1 | 13.9 | 0.00 | 0.00 | 0.00 | 27 | 1019.0 |